contact:dominique.lefevre@mio.osupytheas.fr, maurice.libes@osupytheas.fr, didier.mallarino@osupytheas.fr
Project:EMSO http://www.emso-fr.org/EMSO-France
Depth: 2436.0 m
Title:EMSO Ligure Ouest : Data MII capteur MICROCAT
DateTime_Computer,Latitude,Longitude,Temperature,Conductivity,Pressure,DateTime_Instrument
DateTime_Computer,Latitude,Longitude,degC,S m-1,dbar,DateTime_Instrument
2020-02-05T00:02:21Z,42.805,6.029,13.2959,4.59960,2469.876,2020-2-05T02:02:56Z
2020-02-05T00:05:25Z,42.805,6.029,13.2961,4.59961,2469.89,2020-2-05T02:05:59Z
2020-02-05T00:08:28Z,42.805,6.029,13.2964,4.59961,2469.83,2020-2-05T02:09:02Z
2020-02-05T00:11:31Z,42.805,6.029,13.2959,4.59961,2469.89,2020-2-05T02:12:05Z
2020-02-05T00:14:34Z,42.805,6.029,13.2962,4.59961,2469.844,2020-2-05T02:15:08Z
2020-02-05T00:17:38Z,42.805,6.029,13.2963,4.59961,2469.876,2020-2-05T02:18:12Z
2020-02-05T00:20:41Z,42.805,6.029,13.2963,4.59961,2469.876,2020-2-05T02:21:15Z
2020-02-05T00:23:44Z,42.805,6.029,13.2962,4.59961,2469.867,2020-2-05T02:24:18Z
2020-02-05T00:26:47Z,42.805,6.029,13.2961,4.59961,2469.853,2020-2-05T02:27:21Z
2020-02-05T00:29:50Z,42.805,6.029,13.2964,4.59961,2469.853,2020-2-05T02:30:24Z
2020-02-05T00:32:54Z,42.805,6.029,13.2964,4.59961,2469.867,2020-2-05T02:33:28Z
2020-02-05T00:35:57Z,42.805,6.029,13.2961,4.59962,2469.89,2020-2-05T02:36:31Z
2020-02-05T00:39:00Z,42.805,6.029,13.2962,4.59960,2469.853,2020-2-05T02:39:34Z
2020-02-05T00:42:03Z,42.805,6.029,13.2961,4.59961,2469.876,2020-2-05T02:42:37Z
2020-02-05T00:45:06Z,42.805,6.029,13.2960,4.59961,2469.853,2020-2-05T02:45:41Z
2020-02-05T00:48:10Z,42.805,6.029,13.2961,4.59961,2469.867,2020-2-05T02:48:44Z
2020-02-05T00:51:13Z,42.805,6.029,13.2961,4.59961,2469.89,2020-2-05T02:51:47Z
2020-02-05T00:54:16Z,42.805,6.029,13.2963,4.59961,2469.876,2020-2-05T02:54:50Z
2020-02-05T00:57:19Z,42.805,6.029,13.2962,4.59961,2469.876,2020-2-05T02:57:53Z
2020-02-05T01:00:22Z,42.805,6.029,13.2960,4.59961,2469.876,2020-2-05T03:00:56Z
2020-02-05T01:03:25Z,42.805,6.029,13.2961,4.59961,2469.9,2020-2-05T03:04:00Z
2020-02-05T01:06:29Z,42.805,6.029,13.2958,4.59961,2469.9,2020-2-05T03:07:03Z
2020-02-05T01:09:32Z,42.805,6.029,13.2960,4.59961,2469.876,2020-2-05T03:10:06Z
2020-02-05T01:12:35Z,42.805,6.029,13.2963,4.59961,2469.876,2020-2-05T03:13:09Z
2020-02-05T01:15:38Z,42.805,6.029,13.2963,4.59961,2469.9,2020-2-05T03:16:12Z
2020-02-05T01:18:42Z,42.805,6.029,13.2962,4.59962,2469.937,2020-2-05T03:19:16Z
2020-02-05T01:21:45Z,42.805,6.029,13.2959,4.59961,2469.9,2020-2-05T03:22:19Z
2020-02-05T01:24:48Z,42.805,6.029,13.2965,4.59961,2469.876,2020-2-05T03:25:22Z
2020-02-05T01:27:51Z,42.805,6.029,13.2964,4.59961,2469.9,2020-2-05T03:28:25Z
2020-02-05T01:30:54Z,42.805,6.029,13.2961,4.59961,2469.914,2020-2-05T03:31:29Z
2020-02-05T01:33:58Z,42.805,6.029,13.2963,4.59961,2469.914,2020-2-05T03:34:32Z
2020-02-05T01:37:01Z,42.805,6.029,13.2961,4.59961,2469.937,2020-2-05T03:37:35Z
2020-02-05T01:40:04Z,42.805,6.029,13.2960,4.59961,2469.914,2020-2-05T03:40:38Z
2020-02-05T01:43:07Z,42.805,6.029,13.2961,4.59961,2469.9,2020-2-05T03:43:41Z
2020-02-05T01:46:10Z,42.805,6.029,13.2958,4.59963,2469.9,2020-2-05T03:46:44Z
2020-02-05T01:49:14Z,42.805,6.029,13.2964,4.59961,2469.914,2020-2-05T03:49:48Z
2020-02-05T01:52:17Z,42.805,6.029,13.2963,4.59962,2469.937,2020-2-05T03:52:51Z
2020-02-05T01:55:20Z,42.805,6.029,13.2961,4.59961,2469.863,2020-2-05T03:55:54Z
2020-02-05T01:58:23Z,42.805,6.029,13.2963,4.59960,2469.923,2020-2-05T03:58:57Z
2020-02-05T02:01:26Z,42.805,6.029,13.2966,4.59961,2469.96,2020-2-05T04:02:01Z
2020-02-05T02:04:30Z,42.805,6.029,13.2964,4.59961,2469.923,2020-2-05T04:05:04Z
2020-02-05T02:07:33Z,42.805,6.029,13.2959,4.59961,2469.923,2020-2-05T04:08:07Z
2020-02-05T02:10:36Z,42.805,6.029,13.2964,4.59963,2469.923,2020-2-05T04:11:10Z
2020-02-05T02:13:39Z,42.805,6.029,13.2959,4.59961,2469.937,2020-2-05T04:14:13Z
2020-02-05T02:16:42Z,42.805,6.029,13.2963,4.59961,2469.937,2020-2-05T04:17:17Z
2020-02-05T02:19:46Z,42.805,6.029,13.2964,4.59961,2469.914,2020-2-05T04:20:20Z
2020-02-05T02:22:49Z,42.805,6.029,13.2962,4.59961,2469.96,2020-2-05T04:23:23Z
2020-02-05T02:25:52Z,42.805,6.029,13.2959,4.59961,2469.9,2020-2-05T04:26:26Z
2020-02-05T02:28:55Z,42.805,6.029,13.2963,4.59961,2469.96,2020-2-05T04:29:29Z
2020-02-05T02:31:58Z,42.805,6.029,13.2961,4.59961,2469.923,2020-2-05T04:32:33Z
2020-02-05T02:35:02Z,42.805,6.029,13.2962,4.59961,2469.97,2020-2-05T04:35:36Z
2020-02-05T02:38:05Z,42.805,6.029,13.2958,4.59961,2469.923,2020-2-05T04:38:39Z
2020-02-05T02:41:08Z,42.805,6.029,13.2964,4.59961,2469.923,2020-2-05T04:41:42Z
2020-02-05T02:44:11Z,42.805,6.029,13.2964,4.59961,2469.923,2020-2-05T04:44:45Z
2020-02-05T02:47:14Z,42.805,6.029,13.2963,4.59960,2469.947,2020-2-05T04:47:49Z
2020-02-05T02:50:18Z,42.805,6.029,13.2965,4.59961,2469.914,2020-2-05T04:50:52Z
2020-02-05T02:53:21Z,42.805,6.029,13.2958,4.59961,2469.923,2020-2-05T04:53:55Z
2020-02-05T02:56:24Z,42.805,6.029,13.2960,4.59961,2469.96,2020-2-05T04:56:58Z
2020-02-05T02:59:28Z,42.805,6.029,13.2961,4.59961,2469.96,2020-2-05T05:00:02Z
2020-02-05T03:02:31Z,42.805,6.029,13.2962,4.59961,2469.937,2020-2-05T05:03:05Z
2020-02-05T03:05:34Z,42.805,6.029,13.2964,4.59961,2469.914,2020-2-05T05:06:08Z
2020-02-05T03:08:37Z,42.805,6.029,13.2965,4.59961,2469.937,2020-2-05T05:09:11Z
2020-02-05T03:11:40Z,42.805,6.029,13.2966,4.59961,2469.947,2020-2-05T05:12:15Z
2020-02-05T03:14:44Z,42.805,6.029,13.2959,4.59961,2469.97,2020-2-05T05:15:18Z
2020-02-05T03:17:47Z,42.805,6.029,13.2959,4.59961,2469.947,2020-2-05T05:18:21Z
2020-02-05T03:20:50Z,42.805,6.029,13.2962,4.59960,2469.947,2020-2-05T05:21:24Z
2020-02-05T03:23:53Z,42.805,6.029,13.2961,4.59961,2469.947,2020-2-05T05:24:27Z
2020-02-05T03:26:56Z,42.805,6.029,13.2962,4.59962,2469.923,2020-2-05T05:27:30Z
2020-02-05T03:29:59Z,42.805,6.029,13.2960,4.59961,2469.923,2020-2-05T05:30:34Z
2020-02-05T03:33:03Z,42.805,6.029,13.2960,4.59961,2469.923,2020-2-05T05:33:37Z
2020-02-05T03:36:06Z,42.805,6.029,13.2958,4.59961,2469.947,2020-2-05T05:36:40Z
2020-02-05T03:39:09Z,42.805,6.029,13.2964,4.59961,2469.9,2020-2-05T05:39:43Z
2020-02-05T03:42:12Z,42.805,6.029,13.2964,4.59961,2469.97,2020-2-05T05:42:46Z
2020-02-05T03:45:16Z,42.805,6.029,13.2966,4.59961,2469.97,2020-2-05T05:45:50Z
2020-02-05T03:48:19Z,42.805,6.029,13.2958,4.59961,2469.97,2020-2-05T05:48:53Z
2020-02-05T03:51:22Z,42.805,6.029,13.2964,4.59961,2469.96,2020-2-05T05:51:56Z
2020-02-05T03:54:25Z,42.805,6.029,13.2962,4.59961,2469.947,2020-2-05T05:54:59Z
2020-02-05T03:57:28Z,42.805,6.029,13.2964,4.59961,2469.947,2020-2-05T05:58:02Z
2020-02-05T04:00:32Z,42.805,6.029,13.2961,4.59960,2469.947,2020-2-05T06:01:06Z
2020-02-05T04:03:35Z,42.805,6.029,13.2964,4.59963,2469.947,2020-2-05T06:04:09Z
2020-02-05T04:06:38Z,42.805,6.029,13.2962,4.59961,2469.923,2020-2-05T06:07:12Z
2020-02-05T04:09:41Z,42.805,6.029,13.2962,4.59962,2469.947,2020-2-05T06:10:15Z
2020-02-05T04:12:44Z,42.805,6.029,13.2961,4.59961,2469.947,2020-2-05T06:13:18Z
2020-02-05T04:15:48Z,42.805,6.029,13.2959,4.59961,2469.909,2020-2-05T06:16:22Z
2020-02-05T04:18:51Z,42.805,6.029,13.2959,4.59961,2469.96,2020-2-05T06:19:25Z
2020-02-05T04:21:54Z,42.805,6.029,13.2966,4.59961,2469.947,2020-2-05T06:22:28Z
2020-02-05T04:24:57Z,42.805,6.029,13.2961,4.59961,2469.97,2020-2-05T06:25:31Z
2020-02-05T04:28:00Z,42.805,6.029,13.2968,4.59961,2469.937,2020-2-05T06:28:34Z
2020-02-05T04:31:04Z,42.805,6.029,13.2961,4.59961,2469.947,2020-2-05T06:31:38Z
2020-02-05T04:34:07Z,42.805,6.029,13.2960,4.59962,2469.923,2020-2-05T06:34:41Z
2020-02-05T04:37:10Z,42.805,6.029,13.2959,4.59961,2469.937,2020-2-05T06:37:44Z
2020-02-05T04:40:13Z,42.805,6.029,13.2966,4.59962,2469.97,2020-2-05T06:40:47Z
2020-02-05T04:43:16Z,42.805,6.029,13.2961,4.59961,2469.923,2020-2-05T06:43:50Z
2020-02-05T04:46:20Z,42.805,6.029,13.2965,4.59961,2469.97,2020-2-05T06:46:54Z
2020-02-05T04:49:23Z,42.805,6.029,13.2964,4.59961,2469.96,2020-2-05T06:49:57Z
2020-02-05T04:52:26Z,42.805,6.029,13.2961,4.59962,2469.947,2020-2-05T06:53:00Z
2020-02-05T04:55:29Z,42.805,6.029,13.2966,4.59961,2469.993,2020-2-05T06:56:03Z
2020-02-05T04:58:32Z,42.805,6.029,13.2962,4.59961,2469.947,2020-2-05T06:59:07Z
2020-02-05T05:01:36Z,42.805,6.029,13.2961,4.59961,2469.947,2020-2-05T07:02:10Z
2020-02-05T05:04:39Z,42.805,6.029,13.2963,4.59961,2469.947,2020-2-05T07:05:13Z
2020-02-05T05:07:42Z,42.805,6.029,13.2964,4.59962,2469.923,2020-2-05T07:08:16Z
2020-02-05T05:10:45Z,42.805,6.029,13.2958,4.59961,2469.923,2020-2-05T07:11:19Z
2020-02-05T05:13:49Z,42.805,6.029,13.2961,4.59961,2469.947,2020-2-05T07:14:23Z
2020-02-05T05:16:52Z,42.805,6.029,13.2960,4.59961,2469.96,2020-2-05T07:17:26Z
2020-02-05T05:19:55Z,42.805,6.029,13.2961,4.59961,2469.914,2020-2-05T07:20:29Z
2020-02-05T05:22:58Z,42.805,6.029,13.2961,4.59961,2469.947,2020-2-05T07:23:33Z
2020-02-05T05:26:02Z,42.805,6.029,13.2959,4.59961,2469.96,2020-2-05T07:26:36Z
2020-02-05T05:29:05Z,42.805,6.029,13.2964,4.59960,2469.984,2020-2-05T07:29:39Z
2020-02-05T05:32:08Z,42.805,6.029,13.2963,4.59961,2469.947,2020-2-05T07:32:42Z
2020-02-05T05:35:11Z,42.805,6.029,13.2960,4.59960,2469.96,2020-2-05T07:35:45Z
2020-02-05T05:38:14Z,42.805,6.029,13.2960,4.59963,2469.96,2020-2-05T07:38:48Z
2020-02-05T05:41:18Z,42.805,6.029,13.2961,4.59962,2469.9,2020-2-05T07:41:52Z
2020-02-05T05:44:21Z,42.805,6.029,13.2961,4.59961,2469.923,2020-2-05T07:44:55Z
2020-02-05T05:47:24Z,42.805,6.029,13.2957,4.59961,2469.947,2020-2-05T07:47:58Z
2020-02-05T05:50:27Z,42.805,6.029,13.2961,4.59961,2469.97,2020-2-05T07:51:01Z
2020-02-05T05:53:30Z,42.805,6.029,13.2962,4.59961,2469.937,2020-2-05T07:54:04Z
2020-02-05T05:56:34Z,42.805,6.029,13.2959,4.59962,2469.923,2020-2-05T07:57:08Z
2020-02-05T05:59:37Z,42.805,6.029,13.2961,4.59960,2469.923,2020-2-05T08:00:11Z
2020-02-05T06:02:40Z,42.805,6.029,13.2961,4.59961,2469.947,2020-2-05T08:03:14Z
2020-02-05T06:05:43Z,42.805,6.029,13.2962,4.59961,2469.923,2020-2-05T08:06:17Z
2020-02-05T06:08:46Z,42.805,6.029,13.2961,4.59960,2469.923,2020-2-05T08:09:20Z
2020-02-05T06:11:50Z,42.805,6.029,13.2962,4.59962,2469.947,2020-2-05T08:12:24Z
2020-02-05T06:14:53Z,42.805,6.029,13.2958,4.59961,2469.923,2020-2-05T08:15:27Z
2020-02-05T06:17:57Z,42.805,6.029,13.2968,4.59961,2469.923,2020-2-05T08:18:31Z
2020-02-05T06:21:00Z,42.805,6.029,13.2963,4.59961,2469.9,2020-2-05T08:21:34Z
2020-02-05T06:24:03Z,42.805,6.029,13.2965,4.59963,2469.923,2020-2-05T08:24:37Z
2020-02-05T06:27:06Z,42.805,6.029,13.2961,4.59961,2470.007,2020-2-05T08:27:40Z
2020-02-05T06:30:09Z,42.805,6.029,13.2961,4.59962,2469.9,2020-2-05T08:30:43Z
2020-02-05T06:33:12Z,42.805,6.029,13.2963,4.59962,2469.937,2020-2-05T08:33:47Z
2020-02-05T06:36:16Z,42.805,6.029,13.2961,4.59961,2469.937,2020-2-05T08:36:50Z
2020-02-05T06:39:19Z,42.805,6.029,13.2964,4.59961,2469.937,2020-2-05T08:39:53Z
2020-02-05T06:42:22Z,42.805,6.029,13.2961,4.59961,2469.947,2020-2-05T08:42:56Z
2020-02-05T06:45:25Z,42.805,6.029,13.2964,4.59961,2469.876,2020-2-05T08:46:00Z
2020-02-05T06:48:29Z,42.805,6.029,13.2965,4.59961,2469.923,2020-2-05T08:49:03Z
2020-02-05T06:51:32Z,42.805,6.029,13.2961,4.59961,2469.9,2020-2-05T08:52:06Z
2020-02-05T06:54:35Z,42.805,6.029,13.2967,4.59962,2469.96,2020-2-05T08:55:09Z
2020-02-05T06:57:38Z,42.805,6.029,13.2958,4.59961,2469.914,2020-2-05T08:58:12Z
2020-02-05T07:00:42Z,42.805,6.029,13.2961,4.59961,2469.9,2020-2-05T09:01:16Z
2020-02-05T07:03:45Z,42.805,6.029,13.2961,4.59962,2469.923,2020-2-05T09:04:19Z
2020-02-05T07:06:48Z,42.805,6.029,13.2964,4.59961,2469.876,2020-2-05T09:07:22Z
2020-02-05T07:09:51Z,42.805,6.029,13.2962,4.59961,2469.923,2020-2-05T09:10:25Z
2020-02-05T07:12:55Z,42.805,6.029,13.2965,4.59961,2469.923,2020-2-05T09:13:29Z
2020-02-05T07:15:58Z,42.805,6.029,13.2961,4.59961,2469.923,2020-2-05T09:16:32Z
2020-02-05T07:19:01Z,42.805,6.029,13.2963,4.59961,2469.923,2020-2-05T09:19:35Z
2020-02-05T07:22:04Z,42.805,6.029,13.2966,4.59962,2469.923,2020-2-05T09:22:38Z
2020-02-05T07:25:07Z,42.805,6.029,13.2957,4.59961,2469.9,2020-2-05T09:25:41Z
2020-02-05T07:28:11Z,42.805,6.029,13.2964,4.59961,2469.947,2020-2-05T09:28:45Z
2020-02-05T07:31:14Z,42.805,6.029,13.2965,4.59961,2469.923,2020-2-05T09:31:48Z
2020-02-05T07:34:17Z,42.805,6.029,13.2961,4.59961,2469.937,2020-2-05T09:34:51Z
2020-02-05T07:37:20Z,42.805,6.029,13.2963,4.59961,2469.9,2020-2-05T09:37:54Z
2020-02-05T07:40:23Z,42.805,6.029,13.2963,4.59961,2469.914,2020-2-05T09:40:58Z
2020-02-05T07:43:27Z,42.805,6.029,13.2962,4.59962,2469.9,2020-2-05T09:44:01Z
2020-02-05T07:46:30Z,42.805,6.029,13.2964,4.59961,2469.947,2020-2-05T09:47:04Z
2020-02-05T07:49:33Z,42.805,6.029,13.2965,4.59961,2469.9,2020-2-05T09:50:07Z
2020-02-05T07:52:36Z,42.805,6.029,13.2961,4.59961,2469.9,2020-2-05T09:53:10Z
2020-02-05T07:55:39Z,42.805,6.029,13.2959,4.59961,2469.923,2020-2-05T09:56:13Z
2020-02-05T07:58:43Z,42.805,6.029,13.2958,4.59961,2469.9,2020-2-05T09:59:17Z
2020-02-05T08:01:46Z,42.805,6.029,13.2958,4.59961,2469.914,2020-2-05T10:02:20Z
2020-02-05T08:04:49Z,42.805,6.029,13.2960,4.59961,2469.876,2020-2-05T10:05:23Z
2020-02-05T08:07:52Z,42.805,6.029,13.2960,4.59961,2469.9,2020-2-05T10:08:26Z
2020-02-05T08:10:55Z,42.805,6.029,13.2965,4.59961,2469.937,2020-2-05T10:11:29Z
2020-02-05T08:13:58Z,42.805,6.029,13.2962,4.59961,2469.89,2020-2-05T10:14:33Z
2020-02-05T08:17:02Z,42.805,6.029,13.2965,4.59961,2469.914,2020-2-05T10:17:36Z
2020-02-05T08:20:05Z,42.805,6.029,13.2961,4.59961,2469.9,2020-2-05T10:20:39Z
2020-02-05T08:23:08Z,42.805,6.029,13.2963,4.59964,2469.876,2020-2-05T10:23:42Z
2020-02-05T08:26:11Z,42.805,6.029,13.2960,4.59961,2469.89,2020-2-05T10:26:45Z
2020-02-05T08:29:15Z,42.805,6.029,13.2962,4.59961,2469.9,2020-2-05T10:29:49Z
2020-02-05T08:32:18Z,42.805,6.029,13.2957,4.59962,2469.9,2020-2-05T10:32:52Z
2020-02-05T08:35:21Z,42.805,6.029,13.2963,4.59961,2469.914,2020-2-05T10:35:55Z
2020-02-05T08:38:24Z,42.805,6.029,13.2961,4.59961,2469.9,2020-2-05T10:38:58Z
2020-02-05T08:41:27Z,42.805,6.029,13.2962,4.59961,2469.9,2020-2-05T10:42:01Z
2020-02-05T08:44:31Z,42.805,6.029,13.2961,4.59962,2469.853,2020-2-05T10:45:05Z
2020-02-05T08:47:34Z,42.805,6.029,13.2958,4.59961,2469.914,2020-2-05T10:48:08Z
2020-02-05T08:50:37Z,42.805,6.029,13.2962,4.59960,2469.876,2020-2-05T10:51:11Z
2020-02-05T08:53:40Z,42.805,6.029,13.2961,4.59960,2469.9,2020-2-05T10:54:14Z
2020-02-05T08:56:43Z,42.805,6.029,13.2964,4.59960,2469.876,2020-2-05T10:57:18Z
2020-02-05T08:59:47Z,42.805,6.029,13.2958,4.59960,2469.876,2020-2-05T11:00:21Z
2020-02-05T09:02:50Z,42.805,6.029,13.2961,4.59961,2469.89,2020-2-05T11:03:24Z
2020-02-05T09:05:53Z,42.805,6.029,13.2961,4.59961,2469.9,2020-2-05T11:06:27Z
2020-02-05T09:08:57Z,42.805,6.029,13.2961,4.59960,2469.9,2020-2-05T11:09:31Z
2020-02-05T09:12:00Z,42.805,6.029,13.2961,4.59961,2469.876,2020-2-05T11:12:34Z
2020-02-05T09:15:03Z,42.805,6.029,13.2962,4.59960,2469.89,2020-2-05T11:15:37Z
2020-02-05T09:18:06Z,42.805,6.029,13.2959,4.59961,2469.886,2020-2-05T11:18:40Z
2020-02-05T09:21:09Z,42.805,6.029,13.2961,4.59960,2469.89,2020-2-05T11:21:43Z
2020-02-05T09:24:12Z,42.805,6.029,13.2961,4.59961,2469.914,2020-2-05T11:24:47Z
2020-02-05T09:27:16Z,42.805,6.029,13.2959,4.59962,2469.867,2020-2-05T11:27:50Z
2020-02-05T09:30:19Z,42.805,6.029,13.2960,4.59961,2469.876,2020-2-05T11:30:53Z
2020-02-05T09:33:22Z,42.805,6.029,13.2964,4.59961,2469.876,2020-2-05T11:33:56Z
2020-02-05T09:36:25Z,42.805,6.029,13.2958,4.59961,2469.844,2020-2-05T11:36:59Z
2020-02-05T09:39:28Z,42.805,6.029,13.2961,4.59961,2469.853,2020-2-05T11:40:03Z
2020-02-05T09:42:32Z,42.805,6.029,13.2963,4.59961,2469.89,2020-2-05T11:43:06Z
2020-02-05T09:45:35Z,42.805,6.029,13.2960,4.59961,2469.876,2020-2-05T11:46:09Z
2020-02-05T09:48:38Z,42.805,6.029,13.2961,4.59960,2469.89,2020-2-05T11:49:12Z
2020-02-05T09:51:41Z,42.805,6.029,13.2961,4.59960,2469.9,2020-2-05T11:52:15Z
2020-02-05T09:54:44Z,42.805,6.029,13.2958,4.59960,2469.914,2020-2-05T11:55:18Z
2020-02-05T09:57:48Z,42.805,6.029,13.2962,4.59960,2469.89,2020-2-05T11:58:22Z
2020-02-05T10:00:51Z,42.805,6.029,13.2964,4.59960,2469.914,2020-2-05T12:01:25Z
2020-02-05T10:03:54Z,42.805,6.029,13.2957,4.59960,2469.89,2020-2-05T12:04:28Z
2020-02-05T10:06:57Z,42.805,6.029,13.2962,4.59960,2469.853,2020-2-05T12:07:31Z
2020-02-05T10:10:00Z,42.805,6.029,13.2957,4.59960,2469.867,2020-2-05T12:10:35Z
2020-02-05T10:13:04Z,42.805,6.029,13.2957,4.59960,2469.876,2020-2-05T12:13:38Z
2020-02-05T10:16:07Z,42.805,6.029,13.2960,4.59960,2469.89,2020-2-05T12:16:41Z
2020-02-05T10:19:10Z,42.805,6.029,13.2959,4.59961,2469.876,2020-2-05T12:19:44Z
2020-02-05T10:22:13Z,42.805,6.029,13.2959,4.59960,2469.876,2020-2-05T12:22:47Z
2020-02-05T10:25:16Z,42.805,6.029,13.2959,4.59960,2469.867,2020-2-05T12:25:50Z
2020-02-05T10:28:19Z,42.805,6.029,13.2961,4.59960,2469.867,2020-2-05T12:28:54Z
2020-02-05T10:31:23Z,42.805,6.029,13.2961,4.59960,2469.876,2020-2-05T12:31:57Z
2020-02-05T10:34:26Z,42.805,6.029,13.2961,4.59961,2469.83,2020-2-05T12:35:00Z
2020-02-05T10:37:29Z,42.805,6.029,13.2959,4.59959,2469.853,2020-2-05T12:38:03Z
2020-02-05T10:40:32Z,42.805,6.029,13.2961,4.59961,2469.867,2020-2-05T12:41:06Z
2020-02-05T10:43:35Z,42.805,6.029,13.2958,4.59960,2469.853,2020-2-05T12:44:09Z
2020-02-05T10:46:39Z,42.805,6.029,13.2958,4.59961,2469.89,2020-2-05T12:47:13Z
2020-02-05T10:49:42Z,42.805,6.029,13.2958,4.59960,2469.867,2020-2-05T12:50:16Z
2020-02-05T10:52:45Z,42.805,6.029,13.2959,4.59959,2469.853,2020-2-05T12:53:19Z
2020-02-05T10:55:48Z,42.805,6.029,13.2962,4.59959,2469.876,2020-2-05T12:56:22Z
2020-02-05T10:58:52Z,42.805,6.029,13.2958,4.59960,2469.876,2020-2-05T12:59:26Z
2020-02-05T11:01:55Z,42.805,6.029,13.2961,4.59961,2469.876,2020-2-05T13:02:29Z
2020-02-05T11:04:58Z,42.805,6.029,13.2958,4.59961,2469.89,2020-2-05T13:05:32Z
2020-02-05T11:08:01Z,42.805,6.029,13.2957,4.59960,2469.867,2020-2-05T13:08:35Z
2020-02-05T11:11:05Z,42.805,6.029,13.2963,4.59961,2469.844,2020-2-05T13:11:39Z
2020-02-05T11:14:08Z,42.805,6.029,13.2961,4.59959,2469.89,2020-2-05T13:14:42Z
2020-02-05T11:17:11Z,42.805,6.029,13.2963,4.59959,2469.853,2020-2-05T13:17:45Z
2020-02-05T11:20:15Z,42.805,6.029,13.2961,4.59959,2469.853,2020-2-05T13:20:49Z
2020-02-05T11:23:18Z,42.805,6.029,13.2959,4.59961,2469.853,2020-2-05T13:23:52Z
2020-02-05T11:26:21Z,42.805,6.029,13.2961,4.59960,2469.83,2020-2-05T13:26:55Z
2020-02-05T11:29:24Z,42.805,6.029,13.2961,4.59960,2469.867,2020-2-05T13:29:58Z
2020-02-05T11:32:27Z,42.805,6.029,13.2962,4.59960,2469.876,2020-2-05T13:33:01Z
2020-02-05T11:35:30Z,42.805,6.029,13.2958,4.59961,2469.89,2020-2-05T13:36:05Z
2020-02-05T11:38:34Z,42.805,6.029,13.2960,4.59960,2469.853,2020-2-05T13:39:08Z
2020-02-05T11:41:37Z,42.805,6.029,13.2957,4.59959,2469.844,2020-2-05T13:42:11Z
2020-02-05T11:44:40Z,42.805,6.029,13.2958,4.59960,2469.867,2020-2-05T13:45:14Z
2020-02-05T11:47:43Z,42.805,6.029,13.2957,4.59958,2469.853,2020-2-05T13:48:17Z
2020-02-05T11:50:46Z,42.805,6.029,13.2960,4.59960,2469.844,2020-2-05T13:51:21Z
2020-02-05T11:53:50Z,42.805,6.029,13.2961,4.59960,2469.853,2020-2-05T13:54:24Z
2020-02-05T11:56:53Z,42.805,6.029,13.2960,4.59960,2469.83,2020-2-05T13:57:27Z
2020-02-05T11:59:56Z,42.805,6.029,13.2963,4.59959,2469.853,2020-2-05T14:00:30Z
2020-02-05T12:02:59Z,42.805,6.029,13.2962,4.59960,2469.867,2020-2-05T14:03:34Z
2020-02-05T12:06:03Z,42.805,6.029,13.2962,4.59960,2469.83,2020-2-05T14:06:37Z
2020-02-05T12:09:06Z,42.805,6.029,13.2961,4.59958,2469.853,2020-2-05T14:09:40Z
2020-02-05T12:12:09Z,42.805,6.029,13.2960,4.59958,2469.876,2020-2-05T14:12:43Z
2020-02-05T12:15:12Z,42.805,6.029,13.2960,4.59960,2469.83,2020-2-05T14:15:46Z
2020-02-05T12:18:15Z,42.805,6.029,13.2959,4.59958,2469.867,2020-2-05T14:18:50Z
2020-02-05T12:21:19Z,42.805,6.029,13.2957,4.59960,2469.853,2020-2-05T14:21:53Z
2020-02-05T12:24:22Z,42.805,6.029,13.2961,4.59960,2469.867,2020-2-05T14:24:56Z
2020-02-05T12:27:25Z,42.805,6.029,13.2959,4.59960,2469.89,2020-2-05T14:27:59Z
2020-02-05T12:30:28Z,42.805,6.029,13.2958,4.59960,2469.876,2020-2-05T14:31:02Z
2020-02-05T12:33:32Z,42.805,6.029,13.2959,4.59961,2469.853,2020-2-05T14:34:06Z
2020-02-05T12:36:35Z,42.805,6.029,13.2961,4.59958,2469.853,2020-2-05T14:37:09Z
2020-02-05T12:39:38Z,42.805,6.029,13.2964,4.59960,2469.853,2020-2-05T14:40:12Z
2020-02-05T12:42:41Z,42.805,6.029,13.2960,4.59960,2469.876,2020-2-05T14:43:15Z
2020-02-05T12:45:44Z,42.805,6.029,13.2960,4.59960,2469.853,2020-2-05T14:46:19Z
2020-02-05T12:48:48Z,42.805,6.029,13.2961,4.59958,2469.867,2020-2-05T14:49:22Z
2020-02-05T12:51:51Z,42.805,6.029,13.2964,4.59958,2469.853,2020-2-05T14:52:25Z
2020-02-05T12:54:54Z,42.805,6.029,13.2963,4.59958,2469.853,2020-2-05T14:55:28Z
2020-02-05T12:57:58Z,42.805,6.029,13.2959,4.59960,2469.876,2020-2-05T14:58:32Z
2020-02-05T13:01:01Z,42.805,6.029,13.2964,4.59960,2469.853,2020-2-05T15:01:35Z
2020-02-05T13:04:04Z,42.805,6.029,13.2959,4.59960,2469.89,2020-2-05T15:04:38Z
2020-02-05T13:07:07Z,42.805,6.029,13.2960,4.59961,2469.839,2020-2-05T15:07:41Z
2020-02-05T13:10:10Z,42.805,6.029,13.2959,4.59960,2469.867,2020-2-05T15:10:44Z
2020-02-05T13:13:14Z,42.805,6.029,13.2960,4.59961,2469.876,2020-2-05T15:13:48Z
2020-02-05T13:16:17Z,42.805,6.029,13.2961,4.59960,2469.867,2020-2-05T15:16:51Z
2020-02-05T13:19:20Z,42.805,6.029,13.2964,4.59960,2469.914,2020-2-05T15:19:54Z
2020-02-05T13:22:23Z,42.805,6.029,13.2964,4.59960,2469.89,2020-2-05T15:22:57Z
2020-02-05T13:25:26Z,42.805,6.029,13.2962,4.59960,2469.89,2020-2-05T15:26:00Z
2020-02-05T13:28:29Z,42.805,6.029,13.2964,4.59960,2469.9,2020-2-05T15:29:04Z
2020-02-05T13:31:33Z,42.805,6.029,13.2958,4.59960,2469.863,2020-2-05T15:32:07Z
2020-02-05T13:34:36Z,42.805,6.029,13.2953,4.59960,2469.89,2020-2-05T15:35:10Z
2020-02-05T13:37:39Z,42.805,6.029,13.2960,4.59960,2469.876,2020-2-05T15:38:13Z
2020-02-05T13:40:42Z,42.805,6.029,13.2960,4.59960,2469.89,2020-2-05T15:41:17Z
2020-02-05T13:43:46Z,42.805,6.029,13.2961,4.59960,2469.89,2020-2-05T15:44:20Z
2020-02-05T13:46:49Z,42.805,6.029,13.2961,4.59960,2469.876,2020-2-05T15:47:23Z
2020-02-05T13:49:52Z,42.805,6.029,13.2961,4.59959,2469.853,2020-2-05T15:50:26Z
2020-02-05T13:52:55Z,42.805,6.029,13.2964,4.59960,2469.9,2020-2-05T15:53:29Z
2020-02-05T13:55:58Z,42.805,6.029,13.2964,4.59961,2469.914,2020-2-05T15:56:32Z
2020-02-05T13:59:02Z,42.805,6.029,13.2963,4.59960,2469.9,2020-2-05T15:59:36Z
2020-02-05T14:02:05Z,42.805,6.029,13.2958,4.59960,2469.9,2020-2-05T16:02:39Z
2020-02-05T14:05:08Z,42.805,6.029,13.2961,4.59960,2469.876,2020-2-05T16:05:42Z
2020-02-05T14:08:11Z,42.805,6.029,13.2957,4.59961,2469.9,2020-2-05T16:08:45Z
2020-02-05T14:11:14Z,42.805,6.029,13.2962,4.59960,2469.937,2020-2-05T16:11:49Z
2020-02-05T14:14:18Z,42.805,6.029,13.2961,4.59960,2469.923,2020-2-05T16:14:52Z
2020-02-05T14:17:21Z,42.805,6.029,13.2963,4.59961,2469.9,2020-2-05T16:17:55Z
2020-02-05T14:20:24Z,42.805,6.029,13.2959,4.59961,2469.914,2020-2-05T16:20:58Z
2020-02-05T14:23:27Z,42.805,6.029,13.2964,4.59960,2469.914,2020-2-05T16:24:01Z
2020-02-05T14:26:30Z,42.805,6.029,13.2961,4.59961,2469.923,2020-2-05T16:27:04Z
2020-02-05T14:29:34Z,42.805,6.029,13.2961,4.59960,2469.89,2020-2-05T16:30:08Z
2020-02-05T14:32:37Z,42.805,6.029,13.2958,4.59960,2469.937,2020-2-05T16:33:11Z
2020-02-05T14:35:40Z,42.805,6.029,13.2967,4.59960,2469.923,2020-2-05T16:36:14Z
2020-02-05T14:38:43Z,42.805,6.029,13.2958,4.59961,2469.923,2020-2-05T16:39:17Z
2020-02-05T14:41:46Z,42.805,6.029,13.2961,4.59961,2469.914,2020-2-05T16:42:20Z
2020-02-05T14:44:49Z,42.805,6.029,13.2960,4.59961,2469.89,2020-2-05T16:45:24Z
2020-02-05T14:47:53Z,42.805,6.029,13.2963,4.59961,2469.937,2020-2-05T16:48:27Z
2020-02-05T14:50:56Z,42.805,6.029,13.2958,4.59960,2469.9,2020-2-05T16:51:30Z
2020-02-05T14:53:59Z,42.805,6.029,13.2958,4.59961,2469.923,2020-2-05T16:54:33Z
2020-02-05T14:57:02Z,42.805,6.029,13.2960,4.59961,2469.923,2020-2-05T16:57:36Z
2020-02-05T15:00:06Z,42.805,6.029,13.2963,4.59961,2469.9,2020-2-05T17:00:40Z
2020-02-05T15:03:09Z,42.805,6.029,13.2958,4.59961,2469.937,2020-2-05T17:03:43Z
2020-02-05T15:06:12Z,42.805,6.029,13.2963,4.59961,2469.923,2020-2-05T17:06:46Z
2020-02-05T15:09:15Z,42.805,6.029,13.2963,4.59961,2469.937,2020-2-05T17:09:49Z
2020-02-05T15:12:18Z,42.805,6.029,13.2958,4.59961,2469.89,2020-2-05T17:12:52Z
2020-02-05T15:15:21Z,42.805,6.029,13.2964,4.59962,2469.947,2020-2-05T17:15:56Z